Weather in Maleyevo

Russia / Smolensk Oblast     54°30′50″N   31°31′15″E
temp.,
°C
wind,
m/s
gust,
m/s
humid.,
%
clouds,
%
prec.,
mm/h
press.,
hPa
HPBL,
m
28 november, sun
sun2800:00+2sw71397100 0.3 997807
03:00+2sw61297100 0.4 999851
06:00+2sw61087100 0.1 1000668
09:00+2sw51082100 0.1 1002626
12:00+2sw4982100 0.0 1004447
15:00+2ssw3780100 0.0 1005403
18:00+1sse2485100 0.0 1005113
21:000ese2599100 2.3 1005125
29 november, mon
mon2900:00+1e4996100 5.6 1003288
03:00+2ese51097100 6.9 1001303
06:00+3se41098100 0.1 999332
09:00+4se41099100 0.3 998279
12:00+5se51498100 0.4 996410
15:00+6se51296100 0.4 993408
18:00+6ese51297100 0.1 991419
21:00+5ese51098100 0.1 987388
30 november, tue
tue3000:00+5e3799100 0.4 983250
03:00+4e2399100 1.9 980112
06:00+4nw2499100 1.4 978149
09:00+2w81496100 1.9 979527
12:00−1w91595100 2.1 982767
15:00−2w91488100 3.4 984833
18:00−2w91491100 0.3 9861025
21:00−2w91592100 1.6 9881006
1 december, wed
wed100:00−2w81380100 0.1 9901055
03:00−3w71286100 0.2 991891
06:00−3w61188100 0.1 992744
09:00−4w51090100 0.1 993672
12:00−3wnw598366 0.1 995883
15:00−4wnw59795 0.1 996778
18:00−5w498735 0.0 998352
21:00−6wsw369287 0.0 999183
2 december, thu
thu200:00−5ssw2591100 0.0 998147
03:00−3sse4986100 0.0 996449
06:00−3sse71596100 0.9 993570
09:000ssw71598100 3.4 991732
12:00+2sw81699100 0.3 992793
15:00+3sw71594100 0.4 993705
18:00+2sw71594100 0.1 994738
21:00+2sw71590100 0.1 996776